[TLELIST] Archives

 

[list_settings.list_name] Current TLEs

June 9th 2013 PDT

HST 1 20580U 90037B 13159.49290907 .00001027 00000-0 60989-4 0 2576 2 20580 028.4707 329.8285 0002964 261.9339 132.4696 15.03676075 68382 ISS (ZARYA) 1 25544U 98067A 13160.21539352 .00007702 00000-0 13905-3 0 9662 2 25544 051.6467 147.8721 0010677 049.9319 132.4140 15.50729435833467 CXO 1 25867U 99040B 13162.62983837 -.00000755 00000-0 00000+0 0 9110 2 25867 075.3927 339.8530 8561081 277.4468 000.1821 00.37795970 10517 ____________________________________________________________________ These 2-Line ...Continue Reading

[list_settings.list_name] Current TLEs

June 7th 2013 PDT

HST 1 20580U 90037B 13157.85113492 .00001114 00000-0 67184-4 0 2567 2 20580 028.4708 340.5905 0003003 241.8474 247.7536 15.03669122 68146 ISS (ZARYA) 1 25544U 98067A 13158.40426719 .00005891 00000-0 10838-3 0 9548 2 25544 051.6472 156.8540 0010747 043.0041 101.9051 15.50694209833188 CXO 1 25867U 99040B 13159.98267014 -.00000911 00000-0 00000+0 0 9100 2 25867 075.3678 340.0303 8564397 277.4693 359.7893 00.37798029 10504 ____________________________________________________________________ These 2-Line ...Continue Reading

[list_settings.list_name] Current TLEs

June 6th 2013 PDT

HST 1 20580U 90037B 13155.99243207 .00000983 00000-0 57867-4 0 2557 2 20580 028.4709 352.7746 0003148 217.8873 270.3555 15.03663657 67869 ISS (ZARYA) 1 25544U 98067A 13157.37216615 .00005321 00000-0 98724-4 0 9498 2 25544 051.6473 161.9716 0010578 039.0490 100.3701 15.50678788833028 CXO 1 25867U 99040B 13157.33799670 -.00001097 00000-0 00000+0 0 9099 2 25867 075.3534 340.2004 8566221 277.4918 359.7335 00.37798681 10496 ____________________________________________________________________ These 2-Line ...Continue Reading

[list_settings.list_name] Current TLEs

June 5th 2013 PDT

HST 1 20580U 90037B 13155.99243207 .00000983 00000-0 57867-4 0 2557 2 20580 028.4709 352.7746 0003148 217.8873 270.3555 15.03663657 67869 ISS (ZARYA) 1 25544U 98067A 13156.53440024 .00005343 00000-0 99140-4 0 9428 2 25544 051.6477 166.1274 0010614 036.5242 103.0377 15.50669177832891 CXO 1 25867U 99040B 13157.33799670 -.00001097 00000-0 00000+0 0 9099 2 25867 075.3534 340.2004 8566221 277.4918 359.7335 00.37798681 10496 ____________________________________________________________________ These 2-Line ...Continue Reading

[list_settings.list_name] Current TLEs

June 4th 2013 PDT

HST 1 20580U 90037B 13154.79375883 .00000891 00000-0 51303-4 0 2546 2 20580 028.4710 000.6327 0003020 205.6494 261.1635 15.03659859 67684 ISS (ZARYA) 1 25544U 98067A 13155.49495887 .00005904 00000-0 10874-3 0 9349 2 25544 051.6479 171.2824 0010548 032.2596 060.9054 15.50658515832732 CXO 1 25867U 99040B 13157.33799670 -.00001097 00000-0 00000+0 0 9099 2 25867 075.3534 340.2004 8566221 277.4918 359.7335 00.37798681 10496 ____________________________________________________________________ These 2-Line ...Continue Reading

[list_settings.list_name] Current TLEs

June 3rd 2013 PDT

HST 1 20580U 90037B 13153.78865707 .00001514 00000-0 95763-4 0 2533 2 20580 028.4711 007.2216 0002990 194.5761 220.7269 15.03656325 67525 ISS (ZARYA) 1 25544U 98067A 13154.52881257 .00009374 00000-0 16793-3 0 9286 2 25544 051.6478 176.0733 0010574 028.5472 067.6937 15.50651884832582 CXO 1 25867U 99040B 13154.69373076 -.00001166 00000-0 00000+0 0 9089 2 25867 075.3483 340.3266 8569414 277.5299 359.7384 00.37800245 10483 ____________________________________________________________________ These 2-Line ...Continue Reading

[list_settings.list_name] Current TLEs

June 1st 2013 PDT

HST 1 20580U 90037B 13152.07650681 .00001646 00000-0 10519-3 0 2527 2 20580 028.4711 018.4452 0003009 176.0482 312.8538 15.03649866 67274 ISS (ZARYA) 1 25544U 98067A 13152.42232639 .00006332 00000-0 11625-3 0 9153 2 25544 051.6474 186.5136 0010216 022.8511 186.6556 15.50608707832254 CXO 1 25867U 99040B 13154.69373076 -.00001166 00000-0 00000+0 0 9089 2 25867 075.3483 340.3266 8569414 277.5299 359.7384 00.37800245 10483 ____________________________________________________________________ These 2-Line ...Continue Reading

[list_settings.list_name] Current TLEs

May 31st 2013 PDT

HST 1 20580U 90037B 13150.80758351 .00001749 00000-0 11254-3 0 2519 2 20580 028.4712 026.7633 0003064 161.9075 284.6081 15.03645162 67072 ISS (ZARYA) 1 25544U 98067A 13151.45306713 .00007622 00000-0 13833-3 0 9101 2 25544 051.6470 191.3198 0010161 018.5327 176.8436 15.50600542832109 CXO 1 25867U 99040B 13152.04903758 -.00000993 00000-0 00000+0 0 9078 2 25867 075.3364 340.4671 8574714 277.5537 359.7518 00.37802192 10477 ____________________________________________________________________ These 2-Line ...Continue Reading

[list_settings.list_name] Current TLEs

May 30th 2013 PDT

Unsubscribe Automatically: HST 1 20580U 90037B 13149.09314786 .00001618 00000-0 10316-3 0 2500 2 20580 028.4711 038.0065 0003235 142.7600 005.0164 15.03640263 66823 ISS (ZARYA) 1 25544U 98067A 13150.21304433 .00008994 00000-0 16186-3 0 9052 2 25544 051.6480 197.4680 0010081 013.9361 094.9165 15.50585853831915 CXO 1 25867U 99040B 13152.04903758 -.00000993 00000-0 00000+0 0 9078 2 25867 075.3364 340.4671 8574714 277.5537 359.7518 00.37802192 10477 ______________________________________________________ ...Continue Reading

[list_settings.list_name] Current TLEs

May 29th 2013 PDT

HST 1 20580U 90037B 13149.09314786 .00001618 00000-0 10316-3 0 2500 2 20580 028.4711 038.0065 0003235 142.7600 005.0164 15.03640263 66823 ISS (ZARYA) 1 25544U 98067A 13149.50939454 .00009789 00000-0 17551-3 0 9004 2 25544 051.6483 200.9563 0009967 012.2921 126.1430 15.50575980831804 CXO 1 25867U 99040B 13149.40157956 -.00000760 00000-0 00000+0 0 9066 2 25867 075.3180 340.6341 8579348 277.5539 359.4563 00.37800116 10469 ____________________________________________________________________ These 2-Line ...Continue Reading
  • This mailing list is a public mailing list - anyone may join or leave, at any time.
  • This mailing list is announce-only.

International Space Station (ISS) / Hubble Space Telescope (HST) / Chandra X-Ray Observatory Orbital Data via EMAIL

Privacy Policy:

Private list